This demonstration page uses our WeatherBlox Daily Observations layout. Learn more.

Left ArrowRight Arrow

Hourly Observations for October 25, 2022

Temp ( °F °C ) Dew Point ( °F °C ) Humidity (%) Winds ( mph kmh ) Pressure ( in mb ) Visibility ( mi km ) Precip ( " mm )
12:56 am 00:56 Clear 37 2.8 28 -2.2 70 70 SW 6 9 29.88 1012 10 16 0.00 0.00
1:56 am 01:56 Clear 35 1.7 28 -2.2 75 75 W 6 9 29.86 1011 10 16 0.00 0.00
2:56 am 02:56 Clear 33 0.6 27 -2.8 78 78 W 5 7 29.89 1012 10 16 0.00 0.00
3:56 am 03:56 Clear 28 -2.2 25 -3.9 88 88 SSW 8 13 29.91 1013 10 16 0.00 0.00
4:56 am 04:56 Clear 30 -1.1 27 -2.8 88 88 WSW 5 7 29.90 1013 10 16 0.00 0.00
5:56 am 05:56 Clear 31 -0.6 27 -2.8 85 85 W 7 11 29.91 1013 10 16 0.00 0.00
6:56 am 06:56 Clear 28 -2.2 25 -3.9 88 88 WNW 8 13 29.93 1013 10 16 0.00 0.00
7:56 am 07:56 Clear 28 -2.2 25 -3.9 88 88 NW 7 11 29.93 1014 10 16 0.00 0.00
8:56 am 08:56 Sunny 32 0 28 -2.2 85 85 WNW 9 15 29.95 1014 10 16 0.00 0.00
9:56 am 09:56 Sunny 39 3.9 30 -1.1 70 70 WNW 8 13 29.97 1015 10 16 0.00 0.00
10:56 am 10:56 Sunny 49 9.4 28 -2.2 44 44 WNW 8 13 29.97 1015 10 16 0.00 0.00
11:56 am 11:56 Sunny 54 12.2 27 -2.8 35 35 WNW 8 13 29.97 1015 10 16 0.00 0.00
12:56 pm 12:56 Sunny 57 13.9 26 -3.3 30 30 WNW 10 17 29.94 1014 10 16 0.00 0.00
1:56 pm 13:56 Sunny 60 15.6 25 -3.9 26 26 WNW 14 22 29.91 1013 10 16 0.00 0.00
2:56 pm 14:56 Sunny 63 17.2 26 -3.3 24 24 NW 12 19 29.89 1012 10 16 0.00 0.00
3:56 pm 15:56 Sunny 63 17.2 25 -3.9 23 23 NNW 12 19 29.91 1013 10 16 0.00 0.00
4:56 pm 16:56 Sunny 63 17.2 25 -3.9 23 23 NNW 9 15 29.91 1013 10 16 0.00 0.00
5:56 pm 17:56 Sunny 61 16.1 26 -3.3 26 26 NNE 8 13 29.93 1014 10 16 0.00 0.00
6:56 pm 18:56 Clear 56 13.3 26 -3.3 31 31 N 8 13 29.97 1015 8 13 0.00 0.00
7:56 pm 19:56 Clear 50 10 26 -3.3 39 39 NNE 3 6 30.01 1016 10 16 0.00 0.00
8:56 pm 20:56 Clear 47 8.3 26 -3.3 44 44 N 5 7 30.02 1017 10 16 0.00 0.00
9:56 pm 21:56 Clear 46 7.8 26 -3.3 45 45 N 3 6 30.03 1017 10 16 0.00 0.00
10:56 pm 22:56 Clear 44 6.7 26 -3.3 49 49 Calm 30.04 1017 10 16 0.00 0.00
11:56 pm 23:56 Mostly Clear 42 5.6 26 -3.3 53 53 NNW 7 11 30.06 1018 10 16 0.00 0.00

Powered by AerisWeather